Regional Weather Roundup
Issued by NWS

Home | Current Version | Previous Version | Text Only | Print | Product List | Glossary Off
Versions: 1 2 3 4 5 6 7 8 9 10 11 12 13 14 15 16 17 18 19 20 21 22 23 24 25 26 27 28 29 30 31 32 33 34 35 36 37 38 39 40 41 42 43 44 45 46 47 48 49 50

000
ASUS43 KBIS 081602
RWRND

NORTH DAKOTA REGIONAL WEATHER ROUNDUP
NATIONAL WEATHER SERVICE BISMARCK ND
1000 AM CST THU DEC 08 2016

NOTE: "FAIR" INDICATES FEW OR NO CLOUDS BELOW 12,000 FEET WITH NO
SIGNIFICANT WEATHER AND/OR OBSTRUCTIONS TO VISIBILITY.


NDZ001>003-009>011-017-081700-
NORTHWEST NORTH DAKOTA

CITY           SKY/WX    TMP DP  RH WIND       PRES   REMARKS
WILLISTON      MOCLDY    -4 -11  72 W7        30.68R WCI -18
MINOT          SUNNY     -2  -8  76 W17       30.62R WCI -23
MINOT AFB      SUNNY     -4 -10  75 NW17      30.61R WCI -26
$$

NDZ018>021-031>035-040>046-081700-
SOUTHWEST NORTH DAKOTA

CITY           SKY/WX    TMP DP  RH WIND       PRES   REMARKS
BISMARCK       PTSUNNY    1  -5  75 W10       30.65R WCI -15
DICKINSON      CLOUDY    -5  -9  83 W16       30.57R FOG     WCI -27
GARRISON         N/A     -2  -8  76 NW16      30.61R WCI -23
HETTINGER ARPT SUNNY     -4  -9  79 NW12      30.60R WCI -22
$$

NDZ004>008-012>016-024-026-027-054-081700-
NORTHEAST NORTH DAKOTA

CITY           SKY/WX    TMP DP  RH WIND       PRES   REMARKS
GRAND FORKS    LGT SNOW  15  10  80 NW22      30.50R BLWGSNOWWCI  -3
GRND FRKS AFB  LGT SNOW  14   9  79 N17       30.50R WCI  -2
DEVILS LAKE    CLOUDY     5   0  79 NW22      30.53R WCI -16
$$

NDZ022-023-025-028>030-036>039-047>053-081700-
SOUTHEAST NORTH DAKOTA

CITY           SKY/WX    TMP DP  RH WIND       PRES   REMARKS
FARGO          LGT SNOW  16   9  74 NW23      30.50R WCI  -2
JAMESTOWN      MIX PCPN   5   1  83 NW24G32   30.54R FOG     WCI -17
$$




USA.gov is the U.S. government's official web portal to all federal, state and local government web resources and services.